Regional Weather Roundup
Issued by NWS Little Rock, AR

Home | Current Version | Previous Version | Text Only | Print | Product List | Glossary Off
Versions: 1 2 3 4 5 6 7 8 9 10 11 12 13 14 15 16 17 18 19 20 21 22 23 24 25 26 27

000
ASUS44 KLZK 210005
RWRLZK

WEATHER ROUNDUP FOR ARKANSAS
NATIONAL WEATHER SERVICE LITTLE ROCK AR
700 PM CDT SUN APR 20 2014

NOTE: "FAIR" INDICATES FEW OR NO CLOUDS BELOW 12,000 FEET WITH NO
SIGNIFICANT WEATHER AND/OR OBSTRUCTIONS TO VISIBILITY.

ARZ001-003-010-029-210100-
NORTHWEST ARKANSAS

CITY           SKY/WX    TMP DP  RH WIND       PRES   REMARKS
FAYETTEVILLE   CLOUDY    70  53  54 S6        30.07F
6HR MIN TEMP:  70; 6HR MAX TEMP:  75;

FORT SMITH     CLOUDY    78  52  40 SE5       30.04S
6HR MIN TEMP:  77; 6HR MAX TEMP:  81;

HARRISON       CLOUDY    73  48  41 S6        30.07F
6HR MIN TEMP:  73; 6HR MAX TEMP:  79;

BENTONVILLE    CLOUDY    72  50  46 SW5       30.08F
6HR MIN TEMP:  72; 6HR MAX TEMP:  75;

ROGERS         CLOUDY    71  51  49 SW8       30.08F
6HR MIN TEMP:  71; 6HR MAX TEMP:  77;

SILOAM SPGS    CLOUDY    72  52  49 S3        30.07F
6HR MIN TEMP:  70; 6HR MAX TEMP:  77;

HIGHFILL       CLOUDY    71  51  49 S5        30.06F
6HR MIN TEMP:  71; 6HR MAX TEMP:  76;

SPRINGDALE     CLOUDY    72  50  46 SW9       30.09F
$$

ARZ004-005-016-210100-
NORTH CENTRAL ARKANSAS

CITY           SKY/WX    TMP DP  RH WIND       PRES   REMARKS
BATESVILLE     MOCLDY    75  48  38 S6        30.06S
6HR MIN TEMP:  75; 6HR MAX TEMP:  81;

FLIPPIN        CLOUDY    75  46  35 SW3       30.06S
6HR MIN TEMP:  75; 6HR MAX TEMP:  81;

MTN HOME       MOCLDY    76  46  34 SW5       30.05S
6HR MIN TEMP:  75; 6HR MAX TEMP:  82;

$$

ARZ040-041-210100-
WEST CENTRAL ARKANSAS

CITY           SKY/WX    TMP DP  RH WIND       PRES   REMARKS
MENA           CLOUDY    77  50  38 S3        30.09R
MOUNT IDA      CLOUDY    74  54  49 CALM      30.06R
6HR MIN TEMP:  73; 6HR MAX TEMP:  77;

$$

ARZ009-017-025-026-028-210100-
NORTHEAST ARKANSAS

CITY           SKY/WX    TMP DP  RH WIND       PRES   REMARKS
CORNING        FAIR      75  48  38 SW6       30.07F
JONESBORO      MOCLDY    76  48  37 W7        30.07F
6HR MIN TEMP:  76; 6HR MAX TEMP:  80;

NEWPORT        MOCLDY    74  54  49 SE6       30.08F
6HR MIN TEMP:  75; 6HR MAX TEMP:  81;

WALNUT RIDGE   MOCLDY    73  48  40 S8        30.08S
6HR MIN TEMP:  73; 6HR MAX TEMP:  79;

BLYTHEVILLE    PTCLDY    75  49  39 SW5       30.08F
6HR MIN TEMP:  75; 6HR MAX TEMP:  79;

$$

ARZ022-023-033-042-044-210100-
CENTRAL ARKANSAS

CITY           SKY/WX    TMP DP  RH WIND       PRES   REMARKS
LITTLE ROCK    CLOUDY    76  51  41 E6        30.06F
6HR MIN TEMP:  76; 6HR MAX TEMP:  81;

N LITTLE ROCK  CLOUDY    77  54  44 E5        30.06F
6HR MIN TEMP:  76; 6HR MAX TEMP:  79;

JACKSONVILLE   PTCLDY    77  53  42 SE7       30.06F
6HR MIN TEMP:  77; 6HR MAX TEMP:  81; 6HR PCP: TRACE;

SEARCY         MOCLDY    76  53  44 VRB5      30.08F
6HR MIN TEMP:  76; 6HR MAX TEMP:  80;

HOT SPRINGS    MOCLDY    76  51  41 SW3       30.07S
6HR MIN TEMP:  76; 6HR MAX TEMP:  80;

RUSSELLVILLE   PTCLDY    76  53  44 CALM      30.05F
6HR MIN TEMP:  75; 6HR MAX TEMP:  81;

CLINTON        MOCLDY    75  55  50 S3        30.07S
$$

ARZ036-210100-
EAST ARKANSAS

CITY           SKY/WX    TMP DP  RH WIND       PRES   REMARKS
WEST MEMPHIS   PTCLDY    76  47  35 SW5       30.07F
6HR MIN TEMP:  74; 6HR MAX TEMP:  79; 6HR PCP: TRACE;

$$

ARZ050-053-066-070-073-210100-
SOUTHWEST ARKANSAS

CITY           SKY/WX    TMP DP  RH WIND       PRES   REMARKS
ARKADELPHIA    FAIR      77  59  53 CALM      30.08R
6HR MIN TEMP:  77; 6HR MAX TEMP:  82;

CAMDEN         MOCLDY    75  57  53 MISG      30.06R
TEXARKANA      CLOUDY    72  57  59 CALM      30.06F
6HR MIN TEMP:  72; 6HR MAX TEMP:  79;

EL DORADO      MOCLDY    76  55  48 CALM      30.06R
6HR MIN TEMP:  76; 6HR MAX TEMP:  80;

DE QUEEN       CLOUDY    74  57  55 E5        30.04F
6HR MIN TEMP:  74; 6HR MAX TEMP:  79;

$$

ARZ056-057-069-210100-
SOUTHEAST ARKANSAS

CITY           SKY/WX    TMP DP  RH WIND       PRES   REMARKS
PINE BLUFF     MOCLDY    74  53  48 SE8       30.05F
6HR MIN TEMP:  74; 6HR MAX TEMP:  81;

STUTTGART      PTCLDY    77  50  38 SE6       30.08S
6HR MIN TEMP:  77; 6HR MAX TEMP:  81;

MONTICELLO     PTCLDY    78  50  37 SE5       30.05F
6HR MIN TEMP:  78; 6HR MAX TEMP:  82;


$$





USA.gov is the U.S. government's official web portal to all federal, state and local government web resources and services.